Location: D�rnast
(49.6426°N, 11.9755°E)
Time: 03:11:04
(UTC+00:00)

CZ-4C R/B - Pass Details

Date: 24 January 2021
Orbit: 617 x 1384 km, 63.4° (Epoch: 24 February)

Event Time Altitude Azimuth Distance (km) Brightness Sun altitude
Rises 19:24:49 0° 306° (NW) 3,511 6.3 -33.7°
Reaches altitude 10° 19:27:33 10° 318° (NW) 2,691 5.4 -34.2°
Enters shadow 19:31:42 27° 358° (N) 1,920 4.1 -34.8°
